Edwards AFB North Base, CA

5:41 AM PDT on October 23, 2017 (GMT -0700)
Edwards AFB North Base

Weather History for K9L2 - March, 2013

Change the Weather History Date:

Wednesday, March 27, 2013

  Actual Average (KEDW) Record (KEDW)
Temperature  
Mean Temperature 65 °F -  
Max Temperature 75 °F 68 °F 87 °F (2015)
Min Temperature 55 °F 40 °F 33 °F (2012)
Growing Degree Days 15 (Base 50)    
Moisture  
Dew Point 35 °F    
Average Humidity 37    
Maximum Humidity 57    
Minimum Humidity 20    
Precipitation  
Precipitation 0.00 in - - ()
Sea Level Pressure  
Sea Level Pressure 29.88 in    
Wind  
Wind Speed 14 mph (WSW)    
Max Wind Speed 21 mph    
Max Gust Speed 36 mph    
Visibility 10 miles    
Events      
Averages and records for this station are not official NWS values.
T = Trace of Precipitation, MM = Missing Value Source: NWS Daily Summary

Daily Weather History Graph

Daily Weather History Graph

Search for Another Location

Airport or City:

Trip Planner

Search our weather history database for the weather conditions in past years. The results will help you decide how hot, cold, wet, or windy it might be!

Date:

Astronomy

Mar. 27, 2013 Rise Set
Actual Time 6:44 AM PDT 7:09 PM PDT
Civil Twilight 6:19 AM PDT 7:34 PM PDT
Nautical Twilight 5:49 AM PDT 8:04 PM PDT
Astronomical Twilight 5:19 AM PDT 8:34 PM PDT
Moon 7:54 PM PDT (3/27) 6:40 AM PDT (3/27)
Length of Visible Light 13h 15m
Length of Day
12h 24m
Full, 100% of the Moon is Illuminated
Mar 27
Full
Apr 2
Last Quarter
Apr 10
New
Apr 18
First Quarter
Apr 25
Full

Hourly Weather History & Observations

Time (PDT) Temp. Dew Point Humidity Pressure Visibility Wind Dir Wind Speed Gust Speed Precip Events Conditions
12:55 AM 59.0 °F 33.1 °F 38% 29.86 in 10.0 mi WSW 13.8 mph - N/A   Clear
1:55 AM 60.1 °F 33.1 °F 36% 29.84 in 10.0 mi WSW 17.3 mph - N/A   Clear
3:55 AM 57.0 °F 36.0 °F 45% 29.83 in 10.0 mi WSW 5.8 mph - N/A   Clear
4:55 AM 57.9 °F 36.0 °F 44% 29.83 in 10.0 mi West 15.0 mph - N/A   Clear
5:55 AM 57.9 °F 35.1 °F 42% 29.83 in 10.0 mi West 16.1 mph 25.3 mph N/A   Clear
6:55 AM 55.9 °F 35.1 °F 45% 29.86 in 10.0 mi SW 6.9 mph - N/A   Clear
7:55 AM 57.9 °F 34.0 °F 41% 29.88 in 10.0 mi WSW 15.0 mph - N/A   Clear
8:55 AM 61.0 °F 34.0 °F 36% 29.88 in 10.0 mi WSW 16.1 mph 19.6 mph N/A   Clear
9:55 AM 64.9 °F 34.0 °F 32% 29.89 in 10.0 mi West 18.4 mph - N/A   Clear
10:55 AM 69.1 °F 32.0 °F 25% 29.89 in 10.0 mi West 9.2 mph - N/A   Clear
11:55 AM 72.0 °F 30.9 °F 22% 29.88 in 10.0 mi WSW 15.0 mph 24.2 mph N/A   Clear
12:55 PM 73.9 °F 30.9 °F 21% 29.87 in 10.0 mi SW 10.4 mph 19.6 mph N/A   Clear
1:55 PM 75.0 °F 30.9 °F 20% 29.86 in 10.0 mi West 11.5 mph 25.3 mph N/A   Clear
2:55 PM 75.0 °F 33.1 °F 22% 29.85 in 10.0 mi WNW 13.8 mph 27.6 mph N/A   Clear
3:55 PM 75.0 °F 33.1 °F 22% 29.85 in 10.0 mi West 17.3 mph 24.2 mph N/A   Clear
4:55 PM 72.0 °F 32.0 °F 23% 29.86 in 10.0 mi WNW 19.6 mph 35.7 mph N/A   Partly Cloudy
5:55 PM 70.0 °F 33.1 °F 26% 29.88 in 10.0 mi West 20.7 mph 26.5 mph N/A   Clear
6:55 PM 64.9 °F 41.0 °F 42% 29.91 in 10.0 mi WSW 19.6 mph 23.0 mph N/A   Clear
7:55 PM 62.1 °F 42.1 °F 48% 29.93 in 10.0 mi WSW 16.1 mph - N/A   Clear
8:55 PM 59.0 °F 42.1 °F 53% 29.94 in 10.0 mi SW 15.0 mph - N/A   Clear
9:55 PM 57.0 °F 42.1 °F 57% 29.96 in 10.0 mi WSW 12.7 mph - N/A   Clear
10:55 PM 55.9 °F 41.0 °F 57% 29.96 in 10.0 mi SW 12.7 mph - N/A   Clear
11:55 PM 55.0 °F 39.0 °F 55% 29.96 in 10.0 mi WSW 8.1 mph - N/A   Clear